Peoria, IL

11:45 AM CST on November 22, 2019 (GMT -0600)
Greater Peoria Regional

Weather History for KPIA - September, 2019

Change the Weather History Date:

Saturday, September 14, 2019

  Actual Average Record
Temperature  
Mean Temperature 70 °F 67 °F  
Max Temperature 84 °F 78 °F 102 °F (1939)
Min Temperature 57 °F 56 °F 37 °F (1923)
Degree Days  
Heating Degree Days 0 2  
Month to date heating degree days 0 16  
Since 1 July heating degree days 0 22  
Cooling Degree Days 6 4  
Month to date cooling degree days 102 77  
Year to date cooling degree days 1084 984  
Growing Degree Days 20 (Base 50)    
Moisture  
Dew Point 58 °F    
Average Humidity 68    
Maximum Humidity 93    
Minimum Humidity 42    
Precipitation  
Precipitation 0.00 in 0.10 in 2.58 in (1965)
Month to date precipitation 1.43 1.54  
Year to date precipitation 34.95 26.49  
Snow  
Snow 0.00 in 0.00 in 0.00 in ()
Month to date snowfall 0.0 0.0  
Since 1 July snowfall 0.0 0.0  
Since 1 September snowfall 0.0 0.0  
Snow Depth 0.00 in    
Sea Level Pressure  
Sea Level Pressure 30.17 in    
Wind  
Wind Speed 5 mph ()    
Max Wind Speed 15 mph    
Max Gust Speed 20 mph    
Visibility 10.0 miles    
Events      
T = Trace of Precipitation, MM = Missing Value Source: Averaged Metar Reports

Daily Weather History Graph

Daily Weather History Graph

Search for Another Location

Airport or City:

Astronomy

Sep. 14, 2019 Rise Set
Actual Time 6:38 AM CDT 7:09 PM CDT
Civil Twilight 6:10 AM CDT 7:37 PM CDT
Nautical Twilight 5:38 AM CDT 8:09 PM CDT
Astronomical Twilight 5:04 AM CDT 8:42 PM CDT
Moon 7:50 PM CDT (9/14) 6:51 AM CDT (9/14)
Length of Visible Light 13h 26m
Length of Day
12h 31m
Full, 100% of the Moon is Illuminated
Sep 14
Full
Sep 21
Last Quarter
Sep 28
New
Oct 5
First Quarter
Oct 13
Full

Hourly Weather History & Observations

Time (CDT) Temp. Heat Index Dew Point Humidity Pressure Visibility Wind Dir Wind Speed Gust Speed Precip Events Conditions
12:54 AM 61.0 °F - 57.0 °F 87% 30.18 in 10.0 mi WSW 4.6 mph - N/A   Clear
1:54 AM 60.1 °F - 55.9 °F 86% 30.19 in 10.0 mi WSW 3.5 mph - N/A   Clear
2:54 AM 60.1 °F - 55.9 °F 86% 30.19 in 10.0 mi West 3.5 mph - N/A   Clear
3:54 AM 59.0 °F - 55.0 °F 87% 30.19 in 10.0 mi SW 4.6 mph - N/A   Clear
4:54 AM 59.0 °F - 55.0 °F 87% 30.21 in 10.0 mi South 3.5 mph - N/A   Clear
5:54 AM 57.9 °F - 55.0 °F 90% 30.22 in 10.0 mi Calm Calm - N/A   Clear
6:54 AM 57.9 °F - 55.0 °F 90% 30.23 in 10.0 mi South 3.5 mph - N/A   Clear
7:54 AM 61.0 °F - 57.9 °F 90% 30.23 in 10.0 mi South 4.6 mph - N/A   Clear
8:54 AM 64.9 °F - 59.0 °F 81% 30.24 in 10.0 mi South 4.6 mph - N/A   Clear
9:54 AM 70.0 °F - 60.1 °F 71% 30.24 in 10.0 mi SW 3.5 mph - N/A   Clear
10:54 AM 75.0 °F - 60.1 °F 60% 30.23 in 10.0 mi SSW 5.8 mph - N/A   Clear
11:54 AM 79.0 °F - 57.0 °F 47% 30.22 in 10.0 mi WSW 8.1 mph - N/A   Clear
12:54 PM 79.0 °F - 61.0 °F 54% 30.21 in 10.0 mi South 6.9 mph - N/A   Clear
1:54 PM 82.0 °F 82.1 °F 59.0 °F 45% 30.19 in 10.0 mi SSW 8.1 mph - N/A   Clear
2:54 PM 82.9 °F 82.6 °F 57.9 °F 42% 30.16 in 10.0 mi South 8.1 mph - N/A   Clear
3:54 PM 82.9 °F 82.6 °F 57.9 °F 42% 30.15 in 10.0 mi South 10.4 mph - N/A   Clear
4:54 PM 82.0 °F 82.0 °F 57.9 °F 44% 30.12 in 10.0 mi South 12.7 mph - N/A   Clear
5:54 PM 80.1 °F 80.6 °F 57.9 °F 47% 30.11 in 10.0 mi South 10.4 mph - N/A   Clear
6:54 PM 75.9 °F - 57.9 °F 54% 30.09 in 10.0 mi South 12.7 mph - N/A   Clear
7:54 PM 73.0 °F - 61.0 °F 66% 30.10 in 10.0 mi South 9.2 mph - N/A   Clear
8:54 PM 73.0 °F - 60.1 °F 64% 30.11 in 10.0 mi South 10.4 mph - N/A   Clear
9:54 PM 72.0 °F - 60.1 °F 66% 30.11 in 10.0 mi South 12.7 mph - N/A   Clear
10:54 PM 71.1 °F - 60.1 °F 68% 30.12 in 10.0 mi South 6.9 mph - N/A   Clear
11:54 PM 70.0 °F - 61.0 °F 73% 30.13 in 10.0 mi SSW 4.6 mph - N/A   Mostly Cloudy